Regional Weather Roundup
Issued by NWS

Home | Current Version | Previous Version | Graphics & Text | Print | Product List | Glossary On
Versions: 1 2 3 4 5 6 7 8 9 10 11 12 13 14 15 16 17 18 19 20 21 22 23 24 25 26 27 28 29 30 31 32 33 34 35 36 37 38 39 40 41 42 43 44 45 46 47 48 49 50
000
ASUS45 KCYS 042110
RWRWY

WYOMING REGIONAL WEATHER ROUNDUP
NATIONAL WEATHER SERVICE CHEYENNE WY
300 PM MDT TUE AUG 04 2015

NOTE:  "FAIR" INDICATES FEW OR NO CLOUDS BELOW 12,000 FEET
WITH NO SIGNIFICANT WEATHER AND/OR OBSTRUCTIONS TO VISIBILITY.

WYZ001-042200-
YELLOWSTONE NATIONAL PARK

CITY           SKY/WX    TMP DP  RH WIND       PRES   REMARKS
LK YELLOWSTONE   N/A     67  44  43 W8        30.26F
W YELLOWSTONE  NOT AVBL

$$
WYZ002>013-054>058-071-098>099-042200-
NORTHERN WYOMING

CITY           SKY/WX    TMP DP  RH WIND       PRES   REMARKS
JACKSON        MOSUNNY   75  43  31 S10       30.19F
CODY           FAIR      70  57  64 N15       30.09F
GREYBULL       FAIR      73  56  54 NW15      30.02F
WORLAND        FAIR      79  51  37 N16G23    30.03S
SHERIDAN       LGT RAIN  71  58  63 W10       30.03R
BUFFALO        LGT RAIN  68  54  60 W12       30.07R
GILLETTE       FAIR      82  52  35 SE5       29.97S
HULETT         CLOUDY    64  59  82 SE12      30.01S
NEWCASTLE      FAIR      84  52  32 S7        29.98F

$$
WYZ014>020-022>026-101>103-042200-
CENTRAL WYOMING

CITY           SKY/WX    TMP DP  RH WIND       PRES   REMARKS
BIG PINEY      FAIR      75  34  22 NW16G28   30.25S
PINEDALE       MOCLDY    72  39  30 W7        30.25F
DUBOIS         FAIR      70  37  30 NW17G23   30.20F
LANDER         FAIR      80  47  31 NW7       30.08F
RIVERTON       FAIR      81  48  31 N9G20     30.09F
CASPER         PTSUNNY   76  52  43 N17G24    30.06R THUNDER
DOUGLAS        PTSUNNY   77  53  43 W17       30.05R

$$
WYZ021-027>030-104>119-042200-
SOUTHERN WYOMING

CITY           SKY/WX    TMP DP  RH WIND       PRES   REMARKS
EVANSTON       FAIR      78  39  24 SW17      30.27F
KEMMERER       FAIR      75  41  29 W13G20    30.29F
FORT BRIDGER   PTCLDY    79  41  25 W15       30.29F
ROCK SPRINGS   FAIR      78  39  24 W22G31    30.23S
DIXON          FAIR      81  41  24 W14G28    30.24S
RAWLINS        FAIR      78  47  33 W15G24    30.19S
SARATOGA       MOCLDY    77  41  27 W18G32    30.22S
LARAMIE        FAIR      74  46  36 W24G37    30.19S
CHEYENNE       FAIR      78  47  33 NW21G35   30.12S
TORRINGTON     CLOUDY    72  57  59 N10       29.99R THUNDER
PINE BLUFFS    CLOUDY    77  45  31 W17       30.07S

$$



USA.gov is the U.S. government's official web portal to all federal, state and local government web resources and services.